Location: *
(10.5081°N, 66.9194°W)
Time: 04:32:01
(UTC+00:00)

Cosmos 1452 Rocket - Pass Details

Date: 30 March 2020
Orbit: 766 x 775 km, 74.1° (Epoch: 24 May)

Event Time Altitude Azimuth Distance (km) Brightness Sun altitude
Rises 22:49:59 0° 6° (N) 3,236 6.7 -3.7°
Reaches altitude 10° 22:52:41 10° 18° (NNE) 2,311 5.9 -4.3°
Maximum altitude 22:57:05 27° 75° (ENE) 1,453 4.4 -5.4°
Drops below altitude 10° 23:01:28 10° 132° (SE) 2,316 5.5 -6.5°
Sets 23:04:11 0° 144° (SE) 3,243 6.3 -7.1°
